SCP
0 0 0 0 0 0 0 0 0 0 0 0 0 0 0 0 0 0 0 0 0 0 0 0 0 0 0 0 0 0 0 0 0 0 0 0 0 0 0 0 0 0 0
0 0 0 0 0 0 0 0 0 0 0 0 0 0 0 0 0 0 0 0 0 0 0 0 0 0 0 0 0 0 0 0 0 0 0 0 0 0 0 0 0 0 0
0 0 0 0 0 0 0 0 0 0 0 0 0 0 0 0 0 0 0 0 0 0 0 0 0 0 0 0 0 0 0 0 0 0 0 0 0 0 0 0 0 0 0
0 0 0 0 0 0 0 0 0 0 0 0 0 0 0 0 0 0 0 0 0 0 0 0 0 0 0 0 0 0 0 0 0 0 0 0 0 0 0 0 0 0 0
0 0 0 0 0 0 0 0 0 0 0 0 0 0 0 0 0 0 0 0 0 0 0 0 0 0 0 0 0 0 0 0 0 0 0 0 0 0 0 0 0 0 0
0 0 0 0 0 0 0 0 0 0 0 0 0 0 0 0 0 0 0 0 0 0 0 0 0 0 0 0 0 0 0 0 0 0 0 0 0 0 0 0 0 0 0
0 0 0 0 0 0 0 0 0 0 0 0 0 0 0 0 0 0 0 0 0 0 0 0 0 0 0 0 0 0 0 0 0 0 0 0 0 0 0 0 0 0 0
0 0 0 0 0 0 0 0 0 0 0 0 0 0 0 0 0 0 0 0 0 0 0 0 0 0 0 0 0 0 0 0 0 0 0 0 0 0 0 0 0 0 0
0 0 0 0 0 0 0 0 0 0 0 0 0 0 0 0 0 0 0 0 0 0 0 0 0 0 0 0 0 0 0 0 0 0 0 0 0 0 0 0 0 0 0
0 0 0 0 0 0 0 0 0 0 0 0 0 0 0 0 0 0 0 0 0 0 0 0 0 0 0 0 0 0 0 0 0 0 0 0 0 0 0 0 0 0 0
0 0 0 0 0 0 0 0 0 0 0 0 0 0 0 0 0 0 0 0 0 0 0 0 0 0 0 0 0 0 0 0 0 0 0 0 0 0 0 0 0 0 0
0 0 0 0 0 0 0 0 0 0 0 0 0 0 0 0 0 0 0 0 0 0 0 0 0 0 0 0 0 0 0 0 0 0 0 0 0 0 0 0 0 0 0
0 0 0 0 0 0 0 0 0 0 0 0 0 0 0 0 0 0 0 0 0 0 0 0 0 0 0 0 0 0 0 0 0 0 0 0 0 0 0 0 0 0 0
0 0 0 0 0 0 0 0 0 0 0 0 0 0 0 0 0 0 0 0 0 0 -0 -0 0 0 0 0 0 0 0 0 0 0 0 0 0 0 0 0 0 0 0
0 0 0 0 0 0 0 0 0 0 0 0 0 0 0 0 0 0 0 0 -0 -0 -0 -0 -0 -0 0 0 0 0 0 0 0 0 0 0 0 0 0 0 0 0 0
0 0 0 0 0 0 0 0 0 0 0 0 0 0 0 0 0 0 0 -0 -0 -0 -0 -0 -0 -0 -0 0 0 0 0 0 0 0 0 0 0 0 0 0 0 0 0
0 0 0 0 0 0 0 0 0 0 0 0 0 0 0 0 0 0 0 -0 -0 -0 -0 -0 -0 -0 -0 -0 0 0 0 0 0 0 0 0 0 0 0 0 0 0 0
0 0 0 0 0 0 0 0 0 0 0 0 0 0 0 0 0 -0 -0 -0 -0 -0 -0 -0 -0 -0 -0 0 0 0 0 0 0 0 0 0 0 0 0 0 0 0 0
0 0 0 0 0 0 0 0 0 0 0 0 0 0 0 0 -0 -0 -0 -0 -0 -0 -0 -0 -0 -0 0 0 0 0 0 0 0 0 0 0 0 0 0 0 0 0 0
0 0 0 0 0 0 0 0 0 0 0 0 0 0 -0 -0 -0 -0 -0 -0 -0 -0 -0 -0 -0 0 0 0 0 0 0 0 0 0 0 0 0 0 0 0 0 0 0
0 0 0 0 0 0 0 0 0 0 0 0 0 0 -0 -0 -0 -0 -0 -0 -0 -0 -0 0 0 0 0 0 0 0 0 0 0 0 0 0 0 0 0 0 0 0 0
0 0 0 0 0 0 0 0 0 0 0 0 0 -0 -0 -0 -0 -0 -0 -0 0 0 0 0 0 0 0 0 0 0 0 0 0 0 0 0 0 0 0 0 0 0 0
0 0 0 0 0 0 0 0 0 0 0 0 0 0 -0 -0 -0 0 0 0 0 0 0 0 0 0 0 0 0 0 0 0 0 0 0 0 0 0 0 0 0 0 0
0 0 0 0 0 0 0 0 0 0 0 0 0 0 0 -0 -0 0 0 0 0 0 0 0 0 0 0 0 0 0 0 0 0 0 0 0 0 0 0 0 0 0 0
0 0 0 0 0 0 0 0 0 0 0 0 0 0 0 0 0 0 0 0 0 0 0 0 0 0 0 0 0 0 0 0 0 0 0 0 0 0 0 0 0 0 0
0 0 0 0 0 0 0 0 0 0 0 0 0 0 0 0 0 0 0 0 0 0 0 0 0 0 0 0 0 0 0 0 0 0 0 0 0 0 0 0 0 0 0
Wind_Speed_500mb
54 53 53 52 52 51 52 51 51 51 51 51 51 51 51 51 52 55 58 59 61 62 61 63 62 63 62 61 59 60 62 64 73 75 69 62 58 55 51 49 46 43 39
42 41 40 39 42 44 43 42 44 46 46 48 49 52 53 53 53 56 59 60 62 63 63 64 64 63 63 62 61 61 61 60 65 72 65 60 56 52 46 42 39 37 37
28 28 28 28 29 27 27 29 33 36 38 40 43 45 47 48 50 51 54 57 58 60 61 63 63 62 64 62 61 60 59 59 61 66 66 57 55 49 46 41 38 38 35
24 22 20 18 16 15 16 18 20 22 25 26 29 32 36 39 41 44 47 50 52 54 55 58 60 61 60 58 57 56 55 56 58 62 62 58 54 49 45 43 39 36 29
24 21 18 15 12 10 9 9 11 14 17 21 24 27 30 34 36 39 42 45 48 49 50 52 55 55 55 55 56 53 53 55 56 60 60 59 55 50 44 40 36 32 31
24 20 17 13 9 5 3 3 6 10 13 17 20 22 24 27 31 34 37 40 42 44 46 46 48 51 51 51 52 53 50 53 55 56 57 56 50 48 42 37 35 35 30
21 19 15 11 7 3 1 3 6 9 12 15 18 20 22 25 28 31 34 37 39 40 42 44 44 43 44 44 45 48 50 48 52 51 53 50 47 42 37 38 37 35 30
15 11 9 7 4 2 2 4 7 10 13 16 20 22 23 25 28 29 30 32 34 34 36 38 43 41 36 37 38 42 45 45 46 50 50 44 43 39 38 35 32 33 30
11 9 7 5 3 3 5 8 11 13 16 18 20 21 21 23 26 28 29 30 30 30 31 32 34 34 30 30 34 37 37 39 40 43 45 44 40 37 37 35 34 34 31
11 8 5 2 2 5 9 11 14 17 18 19 19 22 25 26 29 29 31 32 32 32 30 30 30 28 25 25 29 30 35 31 30 32 34 35 36 37 35 31 35 34 36
9 6 4 4 6 9 12 13 14 15 16 18 21 24 27 29 31 31 28 29 29 27 28 27 28 29 27 24 25 26 27 26 25 27 29 30 33 34 30 32 35 38 38
8 6 4 4 6 8 9 10 12 14 17 17 19 19 21 23 25 26 27 28 30 29 26 24 25 28 28 26 26 25 23 25 25 26 28 29 29 31 28 35 39 39 32
11 8 5 1 2 4 7 9 12 16 16 19 23 27 29 30 29 29 31 32 32 30 27 25 26 26 24 22 20 18 21 24 25 28 29 28 34 28 28 38 40 35 28
13 10 9 8 10 11 13 16 17 20 24 27 30 33 34 35 36 37 36 33 30 27 28 28 27 27 26 25 24 22 22 24 27 29 30 29 25 24 31 37 34 29 25
17 17 16 16 17 19 21 23 24 29 30 33 35 36 38 41 43 41 40 37 35 34 30 27 29 31 32 30 27 27 26 28 30 28 26 24 25 29 31 30 29 25 25
22 23 23 24 26 28 28 29 29 30 33 38 39 40 42 43 42 40 40 39 37 36 34 36 34 33 31 29 28 25 24 27 29 30 29 29 31 33 32 30 26 24 22
28 30 32 32 32 32 33 34 38 37 39 41 43 44 46 46 44 42 43 43 43 40 40 39 38 38 37 35 33 28 24 21 24 30 31 32 34 31 28 25 24 24 24
34 35 34 36 37 38 39 40 41 42 44 44 43 44 43 42 43 44 43 38 43 47 48 48 45 43 42 41 37 33 26 22 22 23 27 28 27 22 22 23 23 23 22
38 39 39 40 41 41 41 42 42 42 43 43 43 42 41 41 41 41 42 47 49 49 48 46 46 45 44 41 39 35 31 27 23 20 20 18 18 19 20 20 22 21 22
42 41 40 39 40 40 40 41 41 41 42 43 42 41 39 35 38 40 41 42 43 44 44 44 42 42 41 40 39 39 37 35 31 24 19 19 19 18 20 22 21 21 24
41 40 37 39 39 39 39 39 40 40 39 37 34 33 31 32 34 35 34 35 36 36 36 38 38 38 36 33 36 36 35 33 32 27 23 24 23 23 21 21 20 21 24
41 41 40 40 41 40 39 38 35 33 31 26 23 21 20 21 24 27 28 28 29 30 30 30 32 32 32 32 32 32 33 33 37 35 29 23 25 25 24 23 21 23 25
41 43 44 42 39 37 34 31 27 23 18 12 10 9 12 17 22 25 27 29 31 32 31 31 31 30 31 33 34 34 32 29 26 25 26 24 22 23 22 20 22 26 28
41 41 41 39 36 32 27 23 18 13 7 1 5 10 14 19 22 26 31 35 35 34 35 35 37 39 38 38 37 34 30 24 27 28 23 21 22 24 26 28 30 31 31
43 41 38 34 31 27 22 17 12 7 6 9 12 14 17 22 27 32 36 40 44 44 40 39 39 41 42 44 44 42 36 34 32 27 26 29 29 31 31 31 32 35 38
43 40 37 32 28 22 18 14 13 13 15 17 19 22 25 29 33 36 39 43 44 46 48 49 47 46 46 47 47 48 47 46 43 39 36 33 33 33 38 39 39 43 43
Wind_Direction_500mb
237 241 243 243 245 248 252 254 256 259 262 266 269 270 270 272 274 275 277 279 279 280 281 283 285 286 286 285 283 280 278 277 277 286 289 293 292 291 288 289 287 287 286
231 234 236 238 241 246 250 252 253 257 260 263 266 269 272 274 276 277 279 281 282 282 285 283 285 286 287 288 286 284 283 283 279 282 288 290 291 291 289 288 287 284 279
201 209 216 224 230 236 242 246 250 256 260 264 267 270 274 277 279 281 282 283 284 284 284 284 286 285 286 287 288 286 285 284 283 282 287 290 289 290 287 285 280 277 276
163 172 179 187 199 211 225 238 249 257 263 268 274 279 283 286 287 288 288 287 287 286 285 285 285 285 286 288 287 286 285 282 281 281 284 286 287 287 286 283 279 272 270
150 154 156 161 170 188 208 234 255 271 280 282 285 285 286 287 289 288 287 288 289 289 288 287 286 285 284 284 284 285 284 282 279 279 281 282 284 285 285 283 277 262 270
139 135 131 131 133 142 171 244 272 283 288 289 290 294 296 296 296 294 292 290 290 290 290 288 285 283 282 282 283 284 283 281 279 277 278 279 284 286 284 279 268 259 277
132 129 128 129 130 135 197 281 292 298 302 305 307 311 312 309 306 303 299 298 299 299 298 296 292 287 283 280 280 282 280 280 280 278 274 279 283 283 278 270 261 264 275
138 136 138 140 142 119 32 344 337 334 329 325 322 321 318 311 307 303 301 304 305 306 304 300 297 295 286 281 280 279 281 281 279 279 279 279 277 276 271 266 258 265 273
149 144 141 133 101 36 1 351 344 341 337 333 331 328 325 319 315 315 318 321 320 317 313 310 302 298 292 282 282 285 285 284 281 275 274 274 275 272 266 260 256 269 271
172 174 178 201 311 337 343 347 349 352 353 350 346 344 349 350 348 349 351 348 349 347 346 338 322 313 303 291 288 289 287 290 286 281 279 278 275 269 263 259 262 271 282
195 213 249 300 328 340 350 356 4 9 16 15 16 16 16 17 19 18 12 6 4 359 355 349 339 326 313 298 288 285 289 282 275 271 272 271 269 264 261 263 265 271 281
218 234 257 304 341 359 10 22 31 41 43 43 42 39 35 30 23 17 8 2 356 355 353 351 354 352 344 331 318 307 292 285 280 278 271 270 269 257 261 260 272 277 267
213 213 207 196 72 72 69 73 73 68 67 67 61 55 50 44 39 32 23 17 11 8 9 15 13 4 2 0 352 333 316 308 299 291 282 268 263 268 261 274 276 265 255
197 187 170 153 137 122 109 99 91 89 84 77 72 64 57 53 50 45 41 34 28 28 33 32 28 24 22 19 13 1 342 325 312 304 297 288 271 268 282 279 264 257 242
184 171 160 149 138 131 123 114 105 94 83 78 71 66 63 58 51 45 41 39 38 38 37 30 26 24 21 16 11 2 350 333 322 316 308 298 300 293 278 267 254 243 232
166 162 156 151 144 138 129 118 102 89 85 80 77 71 65 61 55 51 47 43 40 38 32 31 25 19 12 5 1 358 353 341 330 318 308 301 292 285 274 258 242 230 224
163 159 155 149 142 136 131 123 113 105 96 89 81 76 70 66 62 57 52 44 39 34 31 25 15 6 356 349 341 336 332 331 328 321 314 304 293 280 266 248 237 222 218
159 155 151 145 140 136 130 123 116 111 103 94 85 78 73 68 63 58 53 50 47 40 34 27 22 16 10 5 358 352 343 337 339 335 323 305 292 279 263 251 231 227 224
156 152 149 145 141 137 131 125 119 111 101 93 86 79 72 66 61 57 52 47 43 38 32 25 21 16 13 10 8 5 3 358 353 343 327 307 297 286 274 261 248 233 225
157 154 152 149 144 138 132 127 119 110 101 92 85 80 74 69 62 55 49 44 39 33 26 20 18 14 9 4 1 359 358 360 358 350 331 310 308 296 280 271 254 242 242
160 158 157 151 145 139 133 124 115 106 97 89 81 75 66 56 52 47 40 33 27 22 17 11 6 6 5 3 0 356 353 347 343 337 321 310 303 295 281 269 255 251 246
166 162 157 152 147 139 131 123 116 107 99 92 84 72 58 43 35 27 19 12 7 3 359 354 353 355 356 353 348 344 345 342 333 322 310 301 298 289 280 268 259 254 247
168 161 157 151 146 141 135 129 122 115 113 105 78 46 21 11 5 356 350 345 340 336 330 326 325 327 327 330 328 325 321 323 334 336 327 304 284 282 275 271 266 255 254
164 160 157 154 152 150 149 148 148 147 138 77 335 339 344 340 335 331 327 326 325 323 320 316 310 305 303 304 309 312 314 299 306 310 305 300 290 272 259 250 247 248 246
169 168 168 169 169 170 174 180 184 202 251 275 289 300 309 315 317 316 317 317 318 318 318 315 311 306 302 296 294 291 290 288 289 288 292 294 287 269 261 249 246 245 246
182 183 185 187 190 194 204 218 232 245 259 270 282 291 298 303 305 307 309 310 312 312 312 312 309 304 298 294 292 287 282 277 276 273 273 273 276 271 260 250 246 247 245
Wind_Speed_850mb
54 53 53 52 52 51 52 51 51 51 51 51 51 51 51 51 52 55 58 59 61 62 61 63 62 63 62 61 59 60 62 64 73 75 69 62 58 55 51 49 46 43 39
42 41 40 39 42 44 43 42 44 46 46 48 49 52 53 53 53 56 59 60 62 63 63 64 64 63 63 62 61 61 61 60 65 72 65 60 56 52 46 42 39 37 37
28 28 28 28 29 27 27 29 33 36 38 40 43 45 47 48 50 51 54 57 58 60 61 63 63 62 64 62 61 60 59 59 61 66 66 57 55 49 46 41 38 38 35
24 22 20 18 16 15 16 18 20 22 25 26 29 32 36 39 41 44 47 50 52 54 55 58 60 61 60 58 57 56 55 56 58 62 62 58 54 49 45 43 39 36 29
24 21 18 15 12 10 9 9 11 14 17 21 24 27 30 34 36 39 42 45 48 49 50 52 55 55 55 55 56 53 53 55 56 60 60 59 55 50 44 40 36 32 31
24 20 17 13 9 5 3 3 6 10 13 17 20 22 24 27 31 34 37 40 42 44 46 46 48 51 51 51 52 53 50 53 55 56 57 56 50 48 42 37 35 35 30
21 19 15 11 7 3 1 3 6 9 12 15 18 20 22 25 28 31 34 37 39 40 42 44 44 43 44 44 45 48 50 48 52 51 53 50 47 42 37 38 37 35 30
15 11 9 7 4 2 2 4 7 10 13 16 20 22 23 25 28 29 30 32 34 34 36 38 43 41 36 37 38 42 45 45 46 50 50 44 43 39 38 35 32 33 30
11 9 7 5 3 3 5 8 11 13 16 18 20 21 21 23 26 28 29 30 30 30 31 32 34 34 30 30 34 37 37 39 40 43 45 44 40 37 37 35 34 34 31
11 8 5 2 2 5 9 11 14 17 18 19 19 22 25 26 29 29 31 32 32 32 30 30 30 28 25 25 29 30 35 31 30 32 34 35 36 37 35 31 35 34 36
9 6 4 4 6 9 12 13 14 15 16 18 21 24 27 29 31 31 28 29 29 27 28 27 28 29 27 24 25 26 27 26 25 27 29 30 33 34 30 32 35 38 38
8 6 4 4 6 8 9 10 12 14 17 17 19 19 21 23 25 26 27 28 30 29 26 24 25 28 28 26 26 25 23 25 25 26 28 29 29 31 28 35 39 39 32
11 8 5 1 2 4 7 9 12 16 16 19 23 27 29 30 29 29 31 32 32 30 27 25 26 26 24 22 20 18 21 24 25 28 29 28 34 28 28 38 40 35 28
13 10 9 8 10 11 13 16 17 20 24 27 30 33 34 35 36 37 36 33 30 27 28 28 27 27 26 25 24 22 22 24 27 29 30 29 25 24 31 37 34 29 25
17 17 16 16 17 19 21 23 24 29 30 33 35 36 38 41 43 41 40 37 35 34 30 27 29 31 32 30 27 27 26 28 30 28 26 24 25 29 31 30 29 25 25
22 23 23 24 26 28 28 29 29 30 33 38 39 40 42 43 42 40 40 39 37 36 34 36 34 33 31 29 28 25 24 27 29 30 29 29 31 33 32 30 26 24 22
28 30 32 32 32 32 33 34 38 37 39 41 43 44 46 46 44 42 43 43 43 40 40 39 38 38 37 35 33 28 24 21 24 30 31 32 34 31 28 25 24 24 24
34 35 34 36 37 38 39 40 41 42 44 44 43 44 43 42 43 44 43 38 43 47 48 48 45 43 42 41 37 33 26 22 22 23 27 28 27 22 22 23 23 23 22
38 39 39 40 41 41 41 42 42 42 43 43 43 42 41 41 41 41 42 47 49 49 48 46 46 45 44 41 39 35 31 27 23 20 20 18 18 19 20 20 22 21 22
42 41 40 39 40 40 40 41 41 41 42 43 42 41 39 35 38 40 41 42 43 44 44 44 42 42 41 40 39 39 37 35 31 24 19 19 19 18 20 22 21 21 24
41 40 37 39 39 39 39 39 40 40 39 37 34 33 31 32 34 35 34 35 36 36 36 38 38 38 36 33 36 36 35 33 32 27 23 24 23 23 21 21 20 21 24
41 41 40 40 41 40 39 38 35 33 31 26 23 21 20 21 24 27 28 28 29 30 30 30 32 32 32 32 32 32 33 33 37 35 29 23 25 25 24 23 21 23 25
41 43 44 42 39 37 34 31 27 23 18 12 10 9 12 17 22 25 27 29 31 32 31 31 31 30 31 33 34 34 32 29 26 25 26 24 22 23 22 20 22 26 28
41 41 41 39 36 32 27 23 18 13 7 1 5 10 14 19 22 26 31 35 35 34 35 35 37 39 38 38 37 34 30 24 27 28 23 21 22 24 26 28 30 31 31
43 41 38 34 31 27 22 17 12 7 6 9 12 14 17 22 27 32 36 40 44 44 40 39 39 41 42 44 44 42 36 34 32 27 26 29 29 31 31 31 32 35 38
43 40 37 32 28 22 18 14 13 13 15 17 19 22 25 29 33 36 39 43 44 46 48 49 47 46 46 47 47 48 47 46 43 39 36 33 33 33 38 39 39 43 43
Wind_Direction_850mb
237 241 243 243 245 248 252 254 256 259 262 266 269 270 270 272 274 275 277 279 279 280 281 283 285 286 286 285 283 280 278 277 277 286 289 293 292 291 288 289 287 287 286
231 234 236 238 241 246 250 252 253 257 260 263 266 269 272 274 276 277 279 281 282 282 285 283 285 286 287 288 286 284 283 283 279 282 288 290 291 291 289 288 287 284 279
201 209 216 224 230 236 242 246 250 256 260 264 267 270 274 277 279 281 282 283 284 284 284 284 286 285 286 287 288 286 285 284 283 282 287 290 289 290 287 285 280 277 276
163 172 179 187 199 211 225 238 249 257 263 268 274 279 283 286 287 288 288 287 287 286 285 285 285 285 286 288 287 286 285 282 281 281 284 286 287 287 286 283 279 272 270
150 154 156 161 170 188 208 234 255 271 280 282 285 285 286 287 289 288 287 288 289 289 288 287 286 285 284 284 284 285 284 282 279 279 281 282 284 285 285 283 277 262 270
139 135 131 131 133 142 171 244 272 283 288 289 290 294 296 296 296 294 292 290 290 290 290 288 285 283 282 282 283 284 283 281 279 277 278 279 284 286 284 279 268 259 277
132 129 128 129 130 135 197 281 292 298 302 305 307 311 312 309 306 303 299 298 299 299 298 296 292 287 283 280 280 282 280 280 280 278 274 279 283 283 278 270 261 264 275
138 136 138 140 142 119 32 344 337 334 329 325 322 321 318 311 307 303 301 304 305 306 304 300 297 295 286 281 280 279 281 281 279 279 279 279 277 276 271 266 258 265 273
149 144 141 133 101 36 1 351 344 341 337 333 331 328 325 319 315 315 318 321 320 317 313 310 302 298 292 282 282 285 285 284 281 275 274 274 275 272 266 260 256 269 271
172 174 178 201 311 337 343 347 349 352 353 350 346 344 349 350 348 349 351 348 349 347 346 338 322 313 303 291 288 289 287 290 286 281 279 278 275 269 263 259 262 271 282
195 213 249 300 328 340 350 356 4 9 16 15 16 16 16 17 19 18 12 6 4 359 355 349 339 326 313 298 288 285 289 282 275 271 272 271 269 264 261 263 265 271 281
218 234 257 304 341 359 10 22 31 41 43 43 42 39 35 30 23 17 8 2 356 355 353 351 354 352 344 331 318 307 292 285 280 278 271 270 269 257 261 260 272 277 267
213 213 207 196 72 72 69 73 73 68 67 67 61 55 50 44 39 32 23 17 11 8 9 15 13 4 2 0 352 333 316 308 299 291 282 268 263 268 261 274 276 265 255
197 187 170 153 137 122 109 99 91 89 84 77 72 64 57 53 50 45 41 34 28 28 33 32 28 24 22 19 13 1 342 325 312 304 297 288 271 268 282 279 264 257 242
184 171 160 149 138 131 123 114 105 94 83 78 71 66 63 58 51 45 41 39 38 38 37 30 26 24 21 16 11 2 350 333 322 316 308 298 300 293 278 267 254 243 232
166 162 156 151 144 138 129 118 102 89 85 80 77 71 65 61 55 51 47 43 40 38 32 31 25 19 12 5 1 358 353 341 330 318 308 301 292 285 274 258 242 230 224
163 159 155 149 142 136 131 123 113 105 96 89 81 76 70 66 62 57 52 44 39 34 31 25 15 6 356 349 341 336 332 331 328 321 314 304 293 280 266 248 237 222 218
159 155 151 145 140 136 130 123 116 111 103 94 85 78 73 68 63 58 53 50 47 40 34 27 22 16 10 5 358 352 343 337 339 335 323 305 292 279 263 251 231 227 224
156 152 149 145 141 137 131 125 119 111 101 93 86 79 72 66 61 57 52 47 43 38 32 25 21 16 13 10 8 5 3 358 353 343 327 307 297 286 274 261 248 233 225
157 154 152 149 144 138 132 127 119 110 101 92 85 80 74 69 62 55 49 44 39 33 26 20 18 14 9 4 1 359 358 360 358 350 331 310 308 296 280 271 254 242 242
160 158 157 151 145 139 133 124 115 106 97 89 81 75 66 56 52 47 40 33 27 22 17 11 6 6 5 3 0 356 353 347 343 337 321 310 303 295 281 269 255 251 246
166 162 157 152 147 139 131 123 116 107 99 92 84 72 58 43 35 27 19 12 7 3 359 354 353 355 356 353 348 344 345 342 333 322 310 301 298 289 280 268 259 254 247
168 161 157 151 146 141 135 129 122 115 113 105 78 46 21 11 5 356 350 345 340 336 330 326 325 327 327 330 328 325 321 323 334 336 327 304 284 282 275 271 266 255 254
164 160 157 154 152 150 149 148 148 147 138 77 335 339 344 340 335 331 327 326 325 323 320 316 310 305 303 304 309 312 314 299 306 310 305 300 290 272 259 250 247 248 246
169 168 168 169 169 170 174 180 184 202 251 275 289 300 309 315 317 316 317 317 318 318 318 315 311 306 302 296 294 291 290 288 289 288 292 294 287 269 261 249 246 245 246
182 183 185 187 190 194 204 218 232 245 259 270 282 291 298 303 305 307 309 310 312 312 312 312 309 304 298 294 292 287 282 277 276 273 273 273 276 271 260 250 246 247 245